Location: Unspecified
(33.6682°S, 0.0000°E)
Time: 04:09:30
(UTC+00:00)

Vanguard 2 Rocket - Pass Details

Date: 24 June 2019
Orbit: 554 x 3326 km, 32.9° (Epoch: 19 July)

Event Time Altitude Azimuth Distance (km) Brightness Sun altitude
Rises 13:50:57 0° 259° (W) 4,553 10.7 27.4°
Reaches altitude 10° 13:54:53 10° 266° (W) 3,119 10.1 27.0°
Maximum altitude 14:01:12 35° 329° (NNW) 1,326 10.4 26.3°
Drops below altitude 10° 14:05:26 10° 35° (NE) 2,069 9.1 25.9°
Sets 14:07:33 0° 45° (NE) 2,841 9.6 25.6°
